Location: Gaast
(52.9002°N, 5.8891°E)
Time: 07:07:03
(UTC+00:00)

CBERS-1 - Pass Details

Date: 18 November 2025
Orbit: 765 x 772 km, 98.8° (Epoch: 12 December)

Event Time Altitude Azimuth Distance (km) Brightness Sun altitude
Rises 16:27:46 0° 168° (SSE) 3,235 7.4 -7.6°
Reaches altitude 10° 16:30:05 10° 170° (S) 2,313 6.7 -7.9°
Maximum altitude 16:35:11 74° 255° (WSW) 810 4.3 -8.6°
Drops below altitude 10° 16:40:19 10° 341° (NNW) 2,331 6.5 -9.4°
Sets 16:42:39 0° 343° (NNW) 3,263 7.2 -9.7°
